This is the latest recevied weather packets stored in our database for station/object N3FWE. If no packets are shown the sender has not sent any weather packets the latest 10 day(s).
| Time | Temp. | Humidity | Pressure | Rain* | Wind** | Luminosity | Snow |
|---|---|---|---|---|---|---|---|
| 1777962613 | 14.44° C | 75% | 1010.1 hPa | 0 mm | - | - | - |
| 1777962013 | 14.44° C | 75% | 1010.2 hPa | 0 mm | - | - | - |
| 1777961413 | 14.44° C | 75% | 1010.2 hPa | 0 mm | - | - | - |
| 1777960814 | 14.44° C | 75% | 1010.3 hPa | 0 mm | - | - | - |
| 1777960213 | 14.44° C | 74% | 1010.2 hPa | 0 mm | - | - | - |
| 1777959614 | 14.44° C | 74% | 1010.3 hPa | 0 mm | - | - | - |
| 1777959013 | 14.44° C | 73% | 1010.3 hPa | 0 mm | - | - | - |
| 1777958413 | 15° C | 72% | 1010.3 hPa | 0 mm | - | - | - |
| 1777957813 | 15° C | 71% | 1010.3 hPa | 0 mm | - | - | - |
| 1777957214 | 15° C | 72% | 1010.4 hPa | 0 mm | - | - | - |
| 1777956613 | 15° C | 70% | 1010.4 hPa | 0 mm | - | - | - |
| 1777956015 | 15° C | 70% | 1010.3 hPa | 0 mm | - | - | - |
| 1777955415 | 15° C | 70% | 1010.1 hPa | 0 mm | - | - | - |
| 1777954816 | 15° C | 69% | 1010 hPa | 0 mm | - | - | - |
| 1777954215 | 15° C | 68% | 1010 hPa | 0 mm | - | - | - |
| 1777953619 | 15° C | 66% | 1009.8 hPa | 0 mm | - | - | - |
| 1777953015 | 15.56° C | 65% | 1009.9 hPa | 0 mm | - | - | - |
| 1777952415 | 15.56° C | 64% | 1010.1 hPa | 0 mm | - | - | - |
| 1777951815 | 16.11° C | 63% | 1009.9 hPa | 0 mm | - | - | - |
| 1777951215 | 16.67° C | 61% | 1009.8 hPa | 0 mm | - | - | - |
| 1777950616 | 17.78° C | 58% | 1009.9 hPa | 0 mm | - | - | - |
| 1777950016 | 18.33° C | 55% | 1009.9 hPa | 0 mm | - | - | - |
| 1777949415 | 18.33° C | 55% | 1009.9 hPa | 0 mm | - | - | - |
| 1777948816 | 18.33° C | 54% | 1009.8 hPa | 0 mm | - | - | - |
| 1777948216 | 18.33° C | 54% | 1009.7 hPa | 0 mm | - | - | - |
* Rain latest hour (hover to see other rain measurements)
** Current wind speed in m/s (hover to see current wind gust speed)